Big Bear Station Historical Data
Daily Summary for November 22, 2017 Units:  English    Metric   Both
Next Day »
Daily Weekly Monthly Yearly Custom
  High: Low: Average:
Temperature: 69.8 °F 38.1 °F 49 °F
Dew Point: 36.5 °F 29.8 °F 33.1 °F
Humidity: 78% 29% 58%
Wind Speed: 6.3mph 0.0mph 0.6mph
Wind Gust: -999.0mph - -
Wind- - WSW
Pressure: 30.42 in 23.69 in -
Precipitation: 0.00 in    
Historical Graphs
 
 
Tabular Data for November 22, 2017
Time Temperature Dew Point Pressure Wind Wind Speed Wind Gust Humidity Rainfall Rate (Hourly)
00:12 41.0 °F 31.2 °F 30.39 in Calm   -999.0 mph 68% 0 in
00:27 40.6 °F 31.6 °F 23.73 in Calm   -999.0 mph 70% 0 in
00:43 40.3 °F 32.7 °F 30.39 in Calm   -999.0 mph 74% 0 in
00:58 39.7 °F 32.1 °F 30.39 in Calm   -999.0 mph 74% 0 in
01:13 39.2 °F 30.9 °F 30.39 in Calm   -999.0 mph 72% 0 in
01:59 39.9 °F 29.8 °F 30.39 in Calm   -999.0 mph 67% 0 in
02:14 39.7 °F 30.4 °F 30.39 in Calm   -999.0 mph 69% 0 in
02:29 39.2 °F 31.6 °F 23.73 in Calm   -999.0 mph 74% 0 in
02:59 38.8 °F 30.9 °F 30.39 in Calm   -999.0 mph 73% 0 in
03:15 38.5 °F 31.3 °F 30.39 in Calm   -999.0 mph 75% 0 in
03:30 38.1 °F 31.8 °F 30.38 in Calm   -999.0 mph 78% 0 in
03:45 38.3 °F 31.1 °F 30.38 in Calm   -999.0 mph 75% 0 in
04:00 38.5 °F 30.9 °F 30.38 in Calm   -999.0 mph 74% 0 in
04:16 39.4 °F 31.1 °F 23.72 in Calm   -999.0 mph 72% 0 in
04:46 39.2 °F 30.9 °F 30.38 in Calm   -999.0 mph 72% 0 in
05:16 39.0 °F 31.1 °F 23.72 in Calm   -999.0 mph 73% 0 in
05:32 40.1 °F 31.5 °F 30.39 in Calm   -999.0 mph 71% 0 in
05:47 39.9 °F 31.3 °F 30.39 in Calm   -999.0 mph 71% 0 in
06:02 39.9 °F 31.3 °F 30.39 in Calm   -999.0 mph 71% 0 in
06:17 39.7 °F 31.1 °F 30.39 in Calm   -999.0 mph 71% 0 in
06:48 39.0 °F 30.4 °F 30.40 in Calm   -999.0 mph 71% 0 in
07:18 39.4 °F 31.1 °F 23.74 in Calm   -999.0 mph 72% 0 in
07:33 39.9 °F 31.3 °F 30.40 in Calm   -999.0 mph 71% 0 in
07:48 40.6 °F 31.6 °F 30.41 in Calm   -999.0 mph 70% 0 in
08:04 41.7 °F 32.3 °F 30.41 in Calm   -999.0 mph 69% 0 in
08:34 42.6 °F 33.9 °F 23.75 in Calm   -999.0 mph 71% 0 in
08:49 44.2 °F 34.7 °F 30.41 in Calm   -999.0 mph 69% 0 in
09:05 46.8 °F 35.7 °F 30.41 in Calm   -999.0 mph 65% 0 in
09:50 56.7 °F 35.0 °F 23.76 in Calm   -999.0 mph 44% 0 in
10:05 59.4 °F 35.7 °F 30.42 in NNW 1.7 mph -999.0 mph 41% 0 in
10:21 61.2 °F 36.0 °F 30.42 in Calm   -999.0 mph 39% 0 in
10:36 62.4 °F 36.5 °F 30.41 in Calm   -999.0 mph 38% 0 in
11:06 65.3 °F 36.2 °F 30.41 in NNE 2.2 mph -999.0 mph 34% 0 in
11:37 66.9 °F 34.5 °F 30.39 in NW 2.7 mph -999.0 mph 30% 0 in
11:53 68.2 °F 35.6 °F 30.38 in ENE 5.3 mph -999.0 mph 30% 0 in
12:08 68.2 °F 35.6 °F 30.38 in NNW 2.2 mph -999.0 mph 30% 0 in
12:23 68.7 °F 36.0 °F 30.37 in NW 6.3 mph -999.0 mph 30% 0 in
12:38 69.8 °F 36.1 °F 30.37 in NW 4.2 mph -999.0 mph 29% 0 in
13:39 67.6 °F 34.2 °F 23.70 in WNW 2.7 mph -999.0 mph 29% 0 in
14:25 66.7 °F 35.9 °F 30.35 in Calm   -999.0 mph 32% 0 in
14:55 65.1 °F 36.0 °F 30.35 in Calm   -999.0 mph 34% 0 in
15:26 63.5 °F 35.4 °F 30.36 in Calm   -999.0 mph 35% 0 in
15:41 62.4 °F 35.8 °F 23.69 in Calm   -999.0 mph 37% 0 in
15:56 61.3 °F 36.1 °F 30.36 in Calm   -999.0 mph 39% 0 in
Big Bear CA Weather